Location: CAO
(44.5093°N, 80.3921°W)
Time: 09:41:27
(UTC-05:00)

ARIANE 6 FM1 Upper Stage - Pass Details

Date: 22 January 2026
Orbit: 522 x 609 km, 62.0° (Epoch: 9 February)

Event Time Altitude Azimuth Distance (km) Brightness Sun altitude
Rises 18:55:57 0° 208° (SSW) 2,714 6.7 -17.5°
Reaches altitude 10° 18:58:12 10° 205° (SSW) 1,810 5.7 -17.9°
Maximum altitude 19:02:12 59° 126° (SE) 622 2.6 -18.6°
Enters shadow 19:02:59 48° 78° (ENE) 707 2.7 -18.7°
